Harbor Springs, MI

5:09 AM EST on January 18, 2018 (GMT -0500)
Harbor Springs

Weather History for KMGN - September, 2013

Change the Weather History Date:

Sunday, September 29, 2013

  Actual Average (KPLN) Record (KPLN)
Temperature  
Mean Temperature 60 °F -  
Max Temperature 70 °F 61 °F 79 °F (1948)
Min Temperature 50 °F 41 °F 22 °F (1961)
Degree Days  
Heating Degree Days 5    
Growing Degree Days 10 (Base 50)    
Moisture  
Dew Point 52 °F    
Average Humidity 78    
Maximum Humidity 96    
Minimum Humidity 54    
Precipitation  
Precipitation 0.00 in - - ()
Sea Level Pressure  
Sea Level Pressure 29.96 in    
Wind  
Wind Speed 7 mph (WSW)    
Max Wind Speed 14 mph    
Max Gust Speed 25 mph    
Visibility 10 miles    
Events Rain    
Averages and records for this station are not official NWS values.
T = Trace of Precipitation, MM = Missing Value Source: NWS Daily Summary

Daily Weather History Graph

Daily Weather History Graph

Search for Another Location

Airport or City:

Trip Planner

Search our weather history database for the weather conditions in past years. The results will help you decide how hot, cold, wet, or windy it might be!

Date:

Astronomy

Sep. 29, 2013 Rise Set
Actual Time 7:35 AM EDT 7:23 PM EDT
Civil Twilight 7:06 AM EDT 7:52 PM EDT
Nautical Twilight 6:31 AM EDT 8:27 PM EDT
Astronomical Twilight 5:56 AM EDT 9:01 PM EDT
Moon 2:03 AM EDT (9/29) 4:30 PM EDT (9/29)
Length of Visible Light 12h 46m
Length of Day
11h 47m
Waning Crescent, 27% of the Moon is Illuminated
Sep 29
Waning Crescent
Oct 4
New
Oct 11
First Quarter
Oct 18
Full
Oct 26
Last Quarter

Hourly Weather History & Observations

Time (EDT) Temp. Dew Point Humidity Pressure Visibility Wind Dir Wind Speed Gust Speed Precip Events Conditions
12:15 AM 70.9 °F 53.6 °F 54% 29.84 in 10.0 mi South 11.5 mph 25.3 mph N/A   Overcast
12:34 AM 70.3 °F 53.2 °F 55% 29.84 in 10.0 mi South 10.4 mph 17.3 mph N/A   Overcast
12:54 AM 70.0 °F 53.4 °F 56% 29.84 in 10.0 mi South 6.9 mph - N/A   Overcast
1:15 AM 70.0 °F 54.7 °F 58% 29.84 in 10.0 mi SSW 5.8 mph - N/A   Overcast
1:35 AM 70.2 °F 55.4 °F 59% 29.84 in 10.0 mi SSW 13.8 mph 21.9 mph N/A Rain Rain
1:54 AM 70.0 °F 57.7 °F 65% 29.85 in 10.0 mi SSW 11.5 mph 20.7 mph N/A Rain Rain
2:15 AM 65.1 °F 58.1 °F 78% 29.85 in 10.0 mi SSW 9.2 mph 17.3 mph N/A Rain Light Rain
2:34 AM 63.9 °F 58.5 °F 83% 29.86 in 10.0 mi SW 8.1 mph - N/A Rain Light Rain
2:54 AM 62.6 °F 60.4 °F 93% 29.86 in 7.0 mi WSW 6.9 mph - N/A Rain Rain
3:15 AM 61.3 °F 59.9 °F 95% 29.87 in 4.0 mi West 8.1 mph - N/A Rain Rain
3:34 AM 60.1 °F 58.8 °F 96% 29.87 in 4.0 mi West 11.5 mph 17.3 mph N/A Rain Rain
3:54 AM 59.9 °F 58.8 °F 96% 29.87 in 5.0 mi West 5.8 mph - N/A Rain Heavy Rain
4:15 AM 59.5 °F 58.1 °F 95% 29.88 in 3.0 mi WNW 11.5 mph 21.9 mph N/A   Heavy Drizzle
4:34 AM 57.4 °F 55.4 °F 93% 29.87 in 4.0 mi WNW 10.4 mph 21.9 mph N/A   Heavy Drizzle
4:54 AM 57.4 °F 54.5 °F 90% 29.88 in 10.0 mi West 3.5 mph - N/A   Light Drizzle
5:15 AM 55.9 °F 54.3 °F 94% 29.90 in 7.0 mi Calm Calm - N/A   Drizzle
5:34 AM 56.3 °F 54.7 °F 94% 29.91 in 10.0 mi Calm Calm - N/A   Overcast
5:54 AM 57.2 °F 55.8 °F 95% 29.92 in 10.0 mi West 3.5 mph - N/A   Overcast
6:15 AM 57.4 °F 55.4 °F 93% 29.91 in 10.0 mi WNW 5.8 mph - N/A   Overcast
6:34 AM 57.4 °F 54.5 °F 90% 29.92 in 10.0 mi West 3.5 mph - N/A   Overcast
6:54 AM 57.4 °F 55.0 °F 92% 29.93 in 10.0 mi Calm Calm - N/A   Mostly Cloudy
7:15 AM 56.3 °F 54.0 °F 92% 29.95 in 10.0 mi WSW 3.5 mph - N/A   Overcast
7:34 AM 55.9 °F 53.2 °F 91% 29.94 in 10.0 mi WNW 4.6 mph - N/A   Overcast
7:54 AM 55.0 °F 52.3 °F 91% 29.95 in 10.0 mi West 3.5 mph - N/A   Scattered Clouds
8:15 AM 54.9 °F 52.0 °F 90% 29.95 in 10.0 mi West 5.8 mph - N/A   Clear
8:34 AM 54.9 °F 52.7 °F 92% 29.96 in 10.0 mi West 4.6 mph - N/A   Clear
8:55 AM 55.0 °F 52.2 °F 90% 29.96 in 10.0 mi West 4.6 mph - N/A   Clear
9:15 AM 57.4 °F 52.7 °F 84% 29.96 in 10.0 mi West 3.5 mph - N/A   Clear
9:34 AM 57.6 °F 51.6 °F 81% 29.98 in 10.0 mi West 6.9 mph - N/A   Clear
9:55 AM 59.9 °F 52.2 °F 76% 29.99 in 10.0 mi WNW 6.9 mph - N/A   Clear
10:15 AM 59.9 °F 50.9 °F 72% 29.99 in 10.0 mi WNW 8.1 mph 17.3 mph N/A   Scattered Clouds
10:34 AM 59.5 °F 50.9 °F 73% 29.99 in 10.0 mi West 8.1 mph 16.1 mph N/A   Mostly Cloudy
10:55 AM 59.9 °F 49.3 °F 68% 29.99 in 10.0 mi West 9.2 mph - N/A   Scattered Clouds
11:15 AM 59.9 °F 48.2 °F 65% 30.00 in 10.0 mi WNW 9.2 mph - N/A   Scattered Clouds
11:34 AM 60.1 °F 47.7 °F 64% 30.00 in 10.0 mi West 9.2 mph - N/A   Scattered Clouds
11:55 AM 61.2 °F 48.6 °F 63% 30.01 in 10.0 mi NW 9.2 mph 17.3 mph N/A   Scattered Clouds
12:14 PM 61.2 °F 48.6 °F 63% 30.01 in 10.0 mi WNW 4.6 mph - N/A   Scattered Clouds
12:34 PM 61.9 °F 48.6 °F 62% 30.01 in 10.0 mi West 11.5 mph - N/A   Scattered Clouds
12:55 PM 62.6 °F 48.0 °F 59% 30.02 in 10.0 mi West 8.1 mph - N/A   Clear
1:14 PM 62.6 °F 48.7 °F 60% 30.01 in 10.0 mi WSW 5.8 mph - N/A   Clear
1:34 PM 62.8 °F 49.3 °F 61% 30.01 in 10.0 mi WSW 5.8 mph - N/A   Clear
1:55 PM 62.4 °F 50.9 °F 66% 30.01 in 10.0 mi WSW 10.4 mph - N/A   Clear
2:14 PM 62.6 °F 51.1 °F 66% 30.01 in 10.0 mi WSW 6.9 mph - N/A   Clear
2:34 PM 62.6 °F 50.7 °F 65% 30.01 in 10.0 mi WSW 8.1 mph - N/A   Clear
2:55 PM 61.9 °F 50.4 °F 66% 30.01 in 10.0 mi SW 10.4 mph - N/A   Clear
3:14 PM 62.6 °F 50.7 °F 65% 30.00 in 10.0 mi SW 6.9 mph - N/A   Clear
3:34 PM 62.6 °F 50.7 °F 65% 30.00 in 10.0 mi SW 6.9 mph - N/A   Clear
3:55 PM 62.4 °F 50.9 °F 66% 30.00 in 10.0 mi WSW 4.6 mph - N/A   Clear
4:14 PM 61.5 °F 50.4 °F 67% 30.00 in 10.0 mi SW 6.9 mph - N/A   Clear
4:34 PM 62.6 °F 50.9 °F 66% 30.00 in 10.0 mi WSW 5.8 mph - N/A   Clear
4:55 PM 62.2 °F 50.5 °F 65% 30.00 in 10.0 mi WSW 5.8 mph - N/A   Clear
5:14 PM 62.6 °F 50.7 °F 65% 30.00 in 10.0 mi WSW 5.8 mph - N/A   Clear
5:34 PM 62.4 °F 51.1 °F 66% 29.99 in 10.0 mi WSW 6.9 mph - N/A   Clear
5:55 PM 61.3 °F 50.4 °F 67% 30.00 in 10.0 mi West 4.6 mph - N/A   Clear
6:14 PM 61.2 °F 49.6 °F 66% 30.00 in 10.0 mi West 3.5 mph - N/A   Clear
6:34 PM 60.8 °F 47.7 °F 62% 30.00 in 10.0 mi West 4.6 mph - N/A   Clear
6:55 PM 59.9 °F 49.5 °F 68% 30.00 in 10.0 mi Calm Calm - N/A   Clear
7:14 PM 57.4 °F 49.3 °F 74% 30.01 in 10.0 mi Calm Calm - N/A   Clear
7:34 PM 57.4 °F 50.0 °F 76% 30.01 in 10.0 mi Calm Calm - N/A   Clear
7:55 PM 55.6 °F 49.6 °F 80% 30.01 in 10.0 mi Calm Calm - N/A   Clear
8:14 PM 54.9 °F 51.1 °F 87% 30.01 in 10.0 mi Calm Calm - N/A   Clear
8:34 PM 54.9 °F 50.9 °F 86% 30.01 in 10.0 mi Calm Calm - N/A   Clear
8:55 PM 54.0 °F 50.4 °F 88% 30.01 in 10.0 mi North 3.5 mph - N/A   Clear
9:14 PM 52.3 °F 49.6 °F 91% 30.01 in 10.0 mi NNW 4.6 mph - N/A   Clear
9:34 PM 51.3 °F 48.7 °F 91% 30.01 in 10.0 mi Calm Calm - N/A   Clear
9:55 PM 51.6 °F 49.1 °F 91% 30.01 in 10.0 mi Calm Calm - N/A   Clear
10:14 PM 50.0 °F 47.3 °F 90% 30.01 in 10.0 mi Calm Calm - N/A   Clear
10:35 PM 50.0 °F 47.8 °F 92% 30.01 in 10.0 mi Calm Calm - N/A   Clear
10:55 PM 50.0 °F 47.8 °F 92% 30.01 in 10.0 mi Calm Calm - N/A   Clear
11:14 PM 50.0 °F 47.8 °F 92% 30.01 in 10.0 mi Calm Calm - N/A   Clear
11:35 PM 50.0 °F 48.2 °F 94% 30.01 in 10.0 mi Calm Calm - N/A   Clear
11:54 PM 50.0 °F 48.2 °F 94% 30.01 in 10.0 mi Calm Calm - N/A   Clear